Regional Weather Roundup
Issued by NWS Sioux Falls, SD

Home | Current Version | Previous Version | Text Only | Print | Product List | Glossary Off
Versions: 1 2 3 4 5 6 7 8 9 10 11 12 13 14 15 16 17 18 19 20 21 22 23 24 25 26 27 28 29 30 31 32 33 34 35 36 37 38 39 40 41 42 43 44 45 46 47 48 49 50

000
ASUS43 KFSD 020002
RWRFSD

WEATHER ROUNDUP FOR SE SOUTH DAKOTA/SW MINNESOTA/NW IOWA
NATIONAL WEATHER SERVICE SIOUX FALLS SD
700 PM CDT WED JUL 01 2015

NOTE: "FAIR" INDICATES FEW OR NO CLOUDS BELOW 12,000 FEET WITH NO
SIGNIFICANT WEATHER AND OR OBSTRUCTIONS TO VISIBILITY.


SDZ038>040-050-052>070-020100-
SOUTHEAST SOUTH DAKOTA

CITY           SKY/WX    TMP DP  RH WIND       PRES   REMARKS
BROOKINGS      MOSUNNY  N/A N/A N/A E15       29.96F
CHAMBERLAIN    MOSUNNY   78  66  66 SE5       29.90S
6HR MIN TEMP:  74; 6HR MAX TEMP:  79;

HURON          HVY RAIN  74  66  76 SE8       29.89F
6HR MIN TEMP:  74; 6HR MAX TEMP:  80; 6HR PCP:  0.02;

MADISON        CLOUDY    72  63  73 SE13      29.95F
MITCHELL       MOSUNNY   76  67  73 E13       29.91S
6HR MIN TEMP:  76; 6HR MAX TEMP:  80;

SIOUX FALLS    PTSUNNY   74  62  66 E10       29.95S
6HR MIN TEMP:  69; 6HR MAX TEMP:  75;

WINNER         FAIR      82  64  54 E12       29.90S
YANKTON        MOSUNNY   75  64  69 E13       29.90S
$$

MNZ071-072-080-081-089-090-097-098-020100-
SOUTHWEST MINNESOTA

CITY           SKY/WX    TMP DP  RH WIND       PRES   REMARKS
FAIRMONT       SUNNY     66  52  59 E7        29.98S
JACKSON        SUNNY     68  52  56 E9        29.99S
LUVERNE        CLOUDY    73  55  53 E7        29.97S
MARSHALL       SUNNY     70  50  49 SE8       29.97S
6HR MIN TEMP:  66; 6HR MAX TEMP:  73;

MONTEVIDEO     SUNNY     70  55  60 S6        30.00S
PIPESTONE      MOSUNNY   72  50  46 SE7       29.98S
REDWOOD FALLS  SUNNY     69  52  54 E7        29.98F
TRACY          PTSUNNY   70  55  58 E8        29.99S
WINDOM         MOSUNNY   68  54  60 CALM      29.99S
WORTHINGTON    CLOUDY    66  54  63 E13       29.98S
$$

IAZ001>003-012>014-020>022-031-032-NEZ013-014-SDZ071-020100-
NORTHWEST IOWA

CITY           SKY/WX    TMP DP  RH WIND       PRES   REMARKS
DENISON        CLOUDY    72  64  78 E10       29.91R
ESTHERVILLE    MOSUNNY   66  56  70 E10       29.98S
SIOUX CITY     PTSUNNY   75  65  70 E12       29.90F
6HR MIN TEMP:  75; 6HR MAX TEMP:  77;

SPENCER        SUNNY     72  51  47 E10       29.97R
6HR MIN TEMP:  66; 6HR MAX TEMP:  75; 6HR PCP: TRACE;

$$

ABBREVIATIONS USED IN REMARKS
   TC - TEMPERATURE IN CELSIUS
  WCI - WIND CHILL INDEX
   HX - HEAT INDEX
  VSB - VISIBILITY




USA.gov is the U.S. government's official web portal to all federal, state and local government web resources and services.